This is the latest recevied weather packets stored in our database for station/object JE0GNV-13. If no packets are shown the sender has not sent any weather packets the latest 10 day(s).
| Time | Temp. | Humidity | Pressure | Rain* | Wind** | Luminosity | Snow |
|---|---|---|---|---|---|---|---|
| 1777627201 | 10.56° C | 93% | 994.7 hPa | 1.78 mm | - | - | - |
| 1777626600 | 10.56° C | 93% | 994.6 hPa | 1.27 mm | - | - | - |
| 1777626000 | 10.56° C | 93% | 993.9 hPa | 1.52 mm | - | - | - |
| 1777625401 | 11.11° C | 92% | 994 hPa | 2.03 mm | - | - | - |
| 1777624802 | 11.67° C | 92% | 994 hPa | 4.57 mm | - | - | - |
| 1777624201 | 11.67° C | 92% | 993.1 hPa | 4.83 mm | - | - | - |
| 1777623601 | 11.67° C | 84% | 993.5 hPa | 4.57 mm | - | - | - |
| 1777623002 | 12.78° C | 88% | 993.6 hPa | 4.32 mm | - | - | - |
| 1777622402 | 13.33° C | 92% | 993.3 hPa | 4.06 mm | - | - | - |
| 1777621800 | 13.89° C | 91% | 992.7 hPa | 3.3 mm | - | - | - |
| 1777621201 | 15° C | 87% | 992.6 hPa | 0.76 mm | - | - | - |
| 1777620601 | 15.56° C | 89% | 992.5 hPa | 0.25 mm | - | - | - |
| 1777620002 | 15.56° C | 91% | 992.5 hPa | 1.02 mm | - | - | - |
| 1777619400 | 16.11° C | 94% | 992.4 hPa | 1.02 mm | - | - | - |
| 1777618801 | 15.56° C | 93% | 992.7 hPa | 1.02 mm | - | - | - |
| 1777618200 | 15.56° C | 95% | 993.3 hPa | 1.02 mm | - | - | - |
| 1777617601 | 15.56° C | 95% | 993.4 hPa | 0.76 mm | - | - | - |
| 1777617001 | 15° C | 96% | 993.8 hPa | 1.27 mm | - | - | - |
| 1777616400 | 15° C | 97% | 994 hPa | 0.51 mm | - | - | - |
| 1777615800 | 14.44° C | 97% | 994 hPa | 0.51 mm | - | - | - |
| 1777615200 | 14.44° C | 97% | 994.4 hPa | 0.51 mm | - | - | - |
| 1777614600 | 14.44° C | 97% | 994.8 hPa | 0.51 mm | - | - | - |
| 1777614000 | 13.89° C | 97% | 994.9 hPa | 0.51 mm | - | - | - |
| 1777613401 | 13.89° C | 96% | 995.5 hPa | 0 mm | - | - | - |
| 1777612800 | 13.89° C | 96% | 995.4 hPa | 0 mm | - | - | - |
* Rain latest hour (hover to see other rain measurements)
** Current wind speed in m/s (hover to see current wind gust speed)